Vlieland, Netherlands

3:09 PM CEST on August 23, 2017 (GMT +0200)
Vlieland

Weather History for EHVL - October, 2012

Change the Weather History Date:

Sunday, October 28, 2012

  Actual Average Record
Temperature  
Mean Temperature 44 °F -  
Max Temperature 50 °F 48 °F 62 °F (2005)
Min Temperature 39 °F 42 °F 30 °F (1997)
Degree Days  
Heating Degree Days 20    
Moisture  
Dew Point 38 °F    
Average Humidity 75    
Maximum Humidity 87    
Minimum Humidity 58    
Precipitation  
Precipitation 0.00 in - - ()
Sea Level Pressure  
Sea Level Pressure 29.90 in    
Wind  
Wind Speed 14 mph ()    
Max Wind Speed 31 mph    
Max Gust Speed 26 mph    
Visibility 6.1 miles    
Events Rain    
Averages and records for this station are not official NWS values.
T = Trace of Precipitation, MM = Missing Value Source: Averaged Metar Reports

Daily Weather History Graph

Daily Weather History Graph

Search for Another Location

Airport or City:

Trip Planner

Search our weather history database for the weather conditions in past years. The results will help you decide how hot, cold, wet, or windy it might be!

Date:

Astronomy

Oct. 28, 2012 Rise Set
Actual Time 7:31 AM CET 5:15 PM CET
Civil Twilight 6:55 AM CET 5:51 PM CET
Nautical Twilight 6:14 AM CET 6:32 PM CET
Astronomical Twilight 5:34 AM CET 7:12 PM CET
Moon 4:27 PM CET (10/28) 6:03 AM CET (10/28)
Length of Visible Light 10h 56m
Length of Day
9h 43m
Waxing Gibbous, 98% of the Moon is Illuminated
Oct 28
Waxing Gibbous
Oct 29
Full
Nov 7
Last Quarter
Nov 13
New
Nov 20
First Quarter

Hourly Weather History & Observations

Time (CET) Temp. Windchill Dew Point Humidity Pressure Visibility Wind Dir Wind Speed Gust Speed Precip Events Conditions
12:25 AM 41.0 °F 35.8 °F 35.6 °F 81% 29.98 in 6.2 mi South 8.1 mph - N/A   Overcast
12:55 AM 41.0 °F 35.8 °F 37.4 °F 87% 29.98 in 6.2 mi South 8.1 mph - N/A   Mostly Cloudy
1:25 AM 41.0 °F 37.1 °F 35.6 °F 81% 29.98 in 6.2 mi SSE 5.8 mph - N/A   Mostly Cloudy
1:55 AM 41.0 °F 36.4 °F 35.6 °F 81% 29.98 in 6.2 mi South 6.9 mph - N/A   Mostly Cloudy
2:25 AM 41.0 °F 37.1 °F 35.6 °F 81% 29.98 in 6.2 mi South 5.8 mph - N/A   Mostly Cloudy
2:46 AM 42.8 °F 34.0 °F 35.6 °F 76% 29.98 in 6.2 mi WNW 20.7 mph - N/A Rain Light Rain
2:55 AM 42.8 °F 36.6 °F 35.6 °F 76% 29.98 in 6.2 mi WNW 11.5 mph - N/A Rain Drizzle
2:02 AM 42.8 °F 40.1 °F 35.6 °F 76% 29.98 in 6.2 mi WSW 4.6 mph - N/A   Light Drizzle
2:25 AM 42.8 °F 41.1 °F 33.8 °F 70% 29.98 in 6.2 mi West 3.5 mph - N/A   Unknown
2:44 AM 42.8 °F 35.8 °F 33.8 °F 70% 29.98 in 4.3 mi NNW 13.8 mph 26.5 mph N/A Rain Rain
2:48 AM 42.8 °F 34.0 °F 35.6 °F 76% 29.98 in 6.2 mi North 20.7 mph - N/A Rain Light Rain
2:55 AM 41.0 °F 32.2 °F 33.8 °F 76% 29.98 in 6.2 mi NNE 18.4 mph - N/A Rain Light Rain
3:01 AM 42.8 °F 37.0 °F 35.6 °F 76% 29.98 in 6.2 mi NE 10.4 mph - N/A Rain Light Rain
3:14 AM 39.2 °F - 32.0 °F 75% 29.95 in 6.2 mi ENE 2.3 mph - N/A   Unknown
3:25 AM 39.2 °F - 32.0 °F 75% 29.95 in 6.2 mi Calm Calm - N/A   Unknown
3:55 AM 42.8 °F 37.5 °F 35.6 °F 76% 29.95 in 6.2 mi WNW 9.2 mph - N/A   Partly Cloudy
4:25 AM 44.6 °F 38.4 °F 35.6 °F 71% 29.95 in 6.2 mi NW 12.7 mph - N/A   Unknown
4:55 AM 46.4 °F 40.1 °F 37.4 °F 71% 29.95 in 6.2 mi WNW 15.0 mph - N/A   Mostly Cloudy
5:25 AM 44.6 °F 39.7 °F 35.6 °F 71% 29.95 in 6.2 mi West 9.2 mph - N/A   Scattered Clouds
5:55 AM 46.4 °F 40.7 °F 35.6 °F 66% 29.92 in 6.2 mi WNW 12.7 mph - N/A   Partly Cloudy
6:25 AM 44.6 °F 38.4 °F 35.6 °F 71% 29.92 in 6.2 mi West 12.7 mph - N/A   Mostly Cloudy
6:55 AM 44.6 °F 39.2 °F 33.8 °F 66% 29.92 in 6.2 mi West 10.4 mph - N/A   Partly Cloudy
7:25 AM 46.4 °F 41.1 °F 33.8 °F 62% 29.92 in 6.2 mi West 11.5 mph - N/A   Overcast
7:55 AM 46.4 °F 40.7 °F 33.8 °F 62% 29.92 in 6.2 mi West 12.7 mph - N/A   Partly Cloudy
8:25 AM 46.4 °F 41.5 °F 33.8 °F 62% 29.95 in 6.2 mi WSW 10.4 mph - N/A   Unknown
8:55 AM 44.6 °F 39.2 °F 39.2 °F 81% 29.92 in 6.2 mi SSW 10.4 mph - N/A   Mostly Cloudy
9:12 AM 46.4 °F 40.1 °F 37.4 °F 71% 29.92 in 6.2 mi West 15.0 mph - N/A   Mostly Cloudy
9:16 AM 46.4 °F 41.1 °F 37.4 °F 71% 29.92 in 6.2 mi West 11.5 mph - N/A Rain Light Rain
9:25 AM 46.4 °F 42.9 °F 37.4 °F 71% 29.92 in 6.2 mi WSW 6.9 mph - N/A   Partly Cloudy
9:39 AM 46.4 °F 41.5 °F 37.4 °F 71% 29.92 in 4.3 mi West 10.4 mph - N/A   Haze
9:43 AM 46.4 °F 41.9 °F 37.4 °F 71% 29.92 in 6.2 mi West 9.2 mph - N/A Rain Light Rain
9:55 AM 46.4 °F 41.9 °F 37.4 °F 71% 29.92 in 6.2 mi WSW 9.2 mph - N/A   Partly Cloudy
10:25 AM 48.2 °F - 39.2 °F 71% 29.92 in 6.2 mi SW 11.5 mph - N/A   Overcast
10:55 AM 46.4 °F 39.8 °F 39.2 °F 76% 29.92 in 6.2 mi South 16.1 mph - N/A   Mostly Cloudy
11:25 AM 48.2 °F - 39.2 °F 71% 29.92 in 6.2 mi South 17.3 mph - N/A   Unknown
11:55 AM 48.2 °F - 41.0 °F 76% 29.92 in 6.2 mi South 18.4 mph - N/A   Overcast
12:25 PM 48.2 °F - 41.0 °F 76% 29.89 in 6.2 mi South 19.6 mph - N/A   Mostly Cloudy
12:55 PM 50.0 °F - 37.4 °F 62% 29.89 in 6.2 mi SW 20.7 mph - N/A   Overcast
1:25 PM 48.2 °F - 37.4 °F 66% 29.89 in 6.2 mi SW 23.0 mph - N/A   Mostly Cloudy
1:55 PM 50.0 °F - 37.4 °F 62% 29.89 in 6.2 mi SW 24.2 mph - N/A   Overcast
2:25 PM 50.0 °F - 35.6 °F 58% 29.86 in 6.2 mi SW 25.3 mph - N/A   Overcast
2:55 PM 48.2 °F - 35.6 °F 62% 29.86 in 6.2 mi SSW 25.3 mph - N/A   Overcast
3:25 PM 48.2 °F - 37.4 °F 66% 29.86 in 6.2 mi SW 27.6 mph - N/A   Overcast
3:55 PM 48.2 °F - 37.4 °F 66% 29.86 in 6.2 mi SSW 23.0 mph - N/A   Overcast
4:25 PM 48.2 °F - 37.4 °F 66% 29.86 in 6.2 mi SW 27.6 mph - N/A   Overcast
4:55 PM 48.2 °F - 39.2 °F 71% 29.83 in 6.2 mi SW 29.9 mph - N/A   Overcast
5:25 PM 48.2 °F - 37.4 °F 66% 29.83 in 6.2 mi SSW 25.3 mph - N/A   Overcast
5:38 PM 46.4 °F 37.9 °F 39.2 °F 76% 29.83 in 3.7 mi SSW 25.3 mph - N/A Rain Rain
5:39 PM 46.4 °F 37.9 °F 39.2 °F 76% 29.83 in 5.0 mi SSW 25.3 mph - N/A Rain Light Rain
5:46 PM 46.4 °F 37.9 °F 41.0 °F 81% 29.83 in 5.0 mi SSW 25.3 mph - N/A Rain Light Rain
5:55 PM 46.4 °F 38.1 °F 41.0 °F 81% 29.83 in 6.2 mi SSW 24.2 mph - N/A   Overcast
6:06 PM 46.4 °F 37.4 °F 41.0 °F 81% 29.83 in 6.2 mi SSW 28.8 mph - N/A   Overcast
6:25 PM 48.2 °F - 41.0 °F 76% 29.83 in 6.2 mi SSW 28.8 mph - N/A   Overcast
6:47 PM 48.2 °F - 41.0 °F 76% 29.83 in 6.2 mi SSW 29.9 mph - N/A   Overcast
6:51 PM 48.2 °F - 41.0 °F 76% 29.83 in 6.2 mi SSW 28.8 mph - N/A   Overcast
6:55 PM 48.2 °F - 41.0 °F 76% 29.83 in 6.2 mi SSW 28.8 mph - N/A   Overcast
7:25 PM 48.2 °F - 41.0 °F 76% 29.83 in 6.2 mi SSW 28.8 mph - N/A   Overcast
7:46 PM 46.4 °F 37.4 °F 42.8 °F 87% 29.83 in 6.2 mi SSW 28.8 mph - N/A   Mostly Cloudy
7:48 PM 48.2 °F - 42.8 °F 82% 29.83 in 6.2 mi SSW 27.6 mph - N/A   Mostly Cloudy
7:55 PM 48.2 °F - 42.8 °F 82% 29.83 in 6.2 mi SSW 29.9 mph - N/A   Overcast
8:25 PM 46.4 °F 37.5 °F 42.8 °F 87% 29.83 in 6.2 mi South 27.6 mph - N/A   Overcast
8:55 PM 46.4 °F 37.5 °F 41.0 °F 81% 29.83 in 6.2 mi South 27.6 mph - N/A   Overcast
9:08 PM 46.4 °F 37.2 °F 41.0 °F 81% 29.83 in 6.2 mi South 29.9 mph - N/A   Overcast
9:25 PM 44.6 °F 34.7 °F 41.0 °F 87% 29.83 in 6.2 mi South 29.9 mph - N/A Rain Light Rain
9:29 PM 44.6 °F 34.6 °F 39.2 °F 81% 29.83 in 6.2 mi South 31.1 mph - N/A Rain Light Drizzle
9:34 PM 44.6 °F 34.6 °F 39.2 °F 81% 29.83 in 6.2 mi South 31.1 mph - N/A   Drizzle
9:55 PM 44.6 °F 34.9 °F 41.0 °F 87% 29.83 in 6.2 mi South 28.8 mph - N/A   Light Drizzle
10:25 PM 44.6 °F 34.9 °F 41.0 °F 87% 29.80 in 6.2 mi South 28.8 mph - N/A Rain Light Rain
10:55 PM 44.6 °F 35.3 °F 41.0 °F 87% 29.80 in 6.2 mi South 26.5 mph - N/A   Drizzle